sat.trackr.live / text

‹ back to catalog

STARLINK-34795

NORAD 65684 · 2025-212J

PAYLOAD ACTIVE UNKNOWN

§ Identity

Operator
Country
US
Launch date
2025-09-21
Launch site
AFETR
Launch vehicle
Mass (kg)
RCS (m²)

Purposes: comms

External: N2YO · Heavens-Above · Gunter

§ Orbital elements

Epoch: 2026-05-24T20:27:13.030560Z

Period
94.10 min
Inclination
53.1599°
Eccentricity
0.0001104
Mean motion
15.30214351 rev/d
Perigee alt
474.4 km
Apogee alt
475.9 km
Semi-major
6,853.3 km
B*
4.9871e-4
RAAN
351.9613°
Arg perigee
81.8615°
Mean anomaly
278.2511°
Rev number
3,885

§ Raw data

STARLINK-347951 65684U 25212J   26144.85223415  .00014447  00000+0  49871-3 0  99992 65684  53.1599 351.9613 0001104  81.8615 278.2511 15.30214351 38851

JSON: /api/v1/satellites/65684 · /tle

For live sub-satellite position, see the globe view (requires WebGL).

§ Visibility from observer

Set your observer location to see the next 7 days of passes ≥ 10°. The values pass through the URL so the page stays shareable.

No JS? Fill the form by hand. The geolocation button needs JavaScript.